DW9558 Weather Reports


Display with metric or nautical units.
time (UTC)temp
F
wind
direction
speed
MPH
gust
MPH
rain 1hr
in
rain 24hr
in
rain mn
in
humidity
%
barometer
mb
20260506090057 58 123 0.0 2.0 0.00 0.00 0.00 80 1024.5
20260506084557 58 123 0.0 3.0 0.00 0.00 0.00 79 1024.5
20260506083100 58 123 0.0 0.0 0.00 0.00 0.00 79 1024.5
20260506081557 58 123 0.0 0.0 0.00 0.00 0.00 78 1024.5
20260506073049 59 123 0.0 0.0 0.00 0.02 0.00 77 1024.2
20260506071549 59 123 0.0 0.0 0.00 0.02 0.00 77 1024.1
20260506061545 59 122 0.0 3.0 0.00 0.10 0.02 77 1023.6
20260506044533 60 120 1.0 4.0 0.00 0.33 0.02 78 1022.7
20260506043030 61 120 0.0 3.0 0.00 0.33 0.02 77 1022.5
20260506041532 61 120 0.0 4.0 0.00 0.33 0.02 77 1022.3
20260506040029 61 120 0.0 3.0 0.00 0.33 0.02 77 1022.4
20260506034529 61 120 1.0 8.0 0.00 0.45 0.02 76 1022.3
20260506033026 62 117 0.0 4.0 0.00 0.45 0.02 75 1022.1
20260506031525 62 117 0.0 4.0 0.00 0.45 0.02 75 1021.8
20260506030030 63 117 0.0 6.0 0.00 0.45 0.02 74 1021.5
20260506024540 63 117 1.0 8.0 0.00 0.50 0.02 73 1021.4
20260506023023 64 115 0.0 6.0 0.00 0.50 0.02 72 1021.2
20260506021523 64 115 0.0 4.0 0.00 0.50 0.02 72 1021.1
20260506020022 65 115 0.0 7.0 0.00 0.50 0.02 71 1021.1
20260506014524 65 114 1.0 7.0 0.00 0.53 0.02 70 1020.9
20260506013021 65 112 2.0 7.0 0.00 0.53 0.02 69 1020.9
20260506011520 66 108 1.0 6.0 0.00 0.53 0.02 68 1020.8
20260506010021 65 108 2.0 7.0 0.00 0.53 0.02 67 1020.7
20260506004520 66 108 1.0 7.0 0.00 0.56 0.02 67 1020.7
20260506003019 66 105 0.0 6.0 0.00 0.56 0.02 66 1020.6
20260506001519 67 105 0.0 4.0 0.00 0.56 0.02 64 1020.6
20260506000018 67 105 1.0 3.0 0.00 0.56 0.02 63 1020.6
20260505234527 68 105 0.0 3.0 0.00 0.60 0.02 61 1020.5
20260505233017 67 105 0.0 4.0 0.00 0.60 0.02 64 1020.5
20260505231514 66 105 0.0 3.0 0.00 0.60 0.02 64 1020.6
20260505230030 66 105 0.0 4.0 0.00 0.60 0.02 64 1020.6
20260505224513 66 105 0.0 3.0 0.00 0.60 0.02 63 1020.8
20260505223011 66 105 0.0 3.0 0.00 0.60 0.02 63 1020.9
20260505221510 66 105 0.0 2.0 0.00 0.60 0.02 64 1021.1
20260505220010 65 105 0.0 3.0 0.00 0.60 0.02 65 1021.1
20260505214508 66 105 1.0 4.0 0.00 0.60 0.02 63 1021.2
20260505213011 65 105 1.0 2.0 0.00 0.60 0.02 64 1021.2
20260505211513 65 105 1.0 4.0 0.00 0.60 0.02 66 1021.2
20260505210013 65 105 2.0 6.0 0.00 0.60 0.02 64 1021.3
20260505204506 66 105 0.0 3.0 0.00 0.60 0.02 64 1021.4
20260505203003 65 105 0.0 3.0 0.00 0.60 0.02 67 1021.4
20260505201605 64 105 0.0 2.0 0.00 0.60 0.02 69 1021.4
20260505200059 63 105 0.0 6.0 0.00 0.60 0.02 68 1021.6
20260505194557 63 105 0.0 4.0 0.00 0.60 0.02 70 1021.6
20260505193055 62 105 2.0 6.0 0.00 0.60 0.02 68 1021.6
20260505191610 63 105 1.0 6.0 0.00 0.60 0.02 71 1021.7
20260505190052 61 105 1.0 4.0 0.00 0.60 0.02 77 1021.7
20260505184544 59 105 0.0 6.0 0.00 0.60 0.02 80 1021.6
20260505183041 58 105 0.0 1.0 0.00 0.60 0.02 83 1021.5
20260505181539 58 105 0.0 3.0 0.00 0.60 0.02 85 1021.6
20260505180046 58 105 0.0 0.0 0.00 0.60 0.02 87 1021.5
20260505174541 57 105 0.0 4.0 0.00 0.60 0.02 86 1021.4
20260505173032 57 105 0.0 0.0 0.00 0.60 0.02 89 1021.4
20260505171532 57 105 0.0 3.0 0.00 0.60 0.02 91 1021.4
20260505170027 56 105 0.0 3.0 0.00 0.60 0.02 92 1021.4
20260505164526 55 105 0.0 3.0 0.00 0.60 0.02 94 1021.3
20260505163021 55 105 0.0 3.0 0.00 0.60 0.02 95 1021.2
20260505161518 54 105 0.0 2.0 0.00 0.60 0.02 96 1021.1
20260505153012 53 105 0.0 4.0 0.00 0.60 0.02 96 1021.1
20260505151510 53 105 0.0 2.0 0.00 0.60 0.02 96 1020.9
20260505124559 53 105 0.0 3.0 0.00 0.60 0.02 96 1019.9
20260505123100 53 105 0.0 4.0 0.00 0.60 0.02 96 1019.9
20260505121557 53 105 0.0 0.0 0.00 0.60 0.02 96 1019.9
20260505120058 53 105 0.0 0.0 0.00 0.60 0.02 96 1019.9
20260505114600 53 105 0.0 0.0 0.00 0.60 0.02 96 1020.0
20260505113056 53 105 0.0 2.0 0.00 0.60 0.02 96 1020.1
20260505111555 53 105 0.0 2.0 0.00 0.60 0.02 96 1020.2
20260505101606 52 105 0.0 3.0 0.00 0.60 0.02 96 1020.2
20260505094550 52 105 0.0 4.0 0.00 0.60 0.02 96 1020.4
20260505093100 52 105 0.0 4.0 0.00 0.60 0.02 96 1020.5
20260505091547 52 105 1.0 3.0 0.00 0.60 0.02 96 1020.5